THY5EL EDDS-LTFM

Flight info

Callsign THY5EL
Flight time N/A
Altitude 35000
Route ABTAL4H/07 ABTAL L173 RIXED Y161 MAH L173 EBEDA L603 LATLO DCT OBEDI DCT DIPSA DCT BEDOX/N0462F370 DCT NASSY DCT OKLOP DCT ETIDA T390 RILEX
Aircraft B738/M-SDE2E3FGHIRWXY/LB1

Departure

Time 2026-05-01 14:39
Airport Stuttgart Airport (EDDS)

Arrival

Time N/A
Airport İstanbul Airport (LTFM)
Time Latitude Longitude Altitude Speed Heading
2026-05-01 14:28 48.68762 9.20066 1289 ft 0 kts 254°
2026-05-01 14:34 48.68760 9.20054 1289 ft 2 kts 254°
2026-05-01 14:34 48.68756 9.20033 1289 ft 2 kts 257°
2026-05-01 14:35 48.68754 9.20012 1290 ft 2 kts 262°
2026-05-01 14:35 48.68750 9.19993 1291 ft 2 kts 245°
2026-05-01 14:35 48.68742 9.19978 1291 ft 2 kts 225°
2026-05-01 14:35 48.68711 9.19976 1289 ft 8 kts 169°
2026-05-01 14:36 48.68684 9.19987 1288 ft 0 kts 165°
2026-05-01 14:36 48.68677 9.19989 1287 ft 4 kts 166°
2026-05-01 14:36 48.68623 9.20015 1286 ft 13 kts 154°
2026-05-01 14:36 48.68594 9.20113 1281 ft 0 kts 77°
2026-05-01 14:37 48.68595 9.20121 1281 ft 0 kts 76°
2026-05-01 14:38 48.68595 9.20124 1281 ft 1 kts 76°
2026-05-01 14:38 48.68622 9.20270 1277 ft 47 kts 73°
2026-05-01 14:39 48.68790 9.21156 1265 ft 126 kts 74°
2026-05-01 14:39 48.69081 9.22734 1360 ft 178 kts 75°
2026-05-01 14:39 48.69385 9.24511 2321 ft 172 kts 77°
2026-05-01 14:39 48.69708 9.26277 3345 ft 181 kts 76°
2026-05-01 14:40 48.70086 9.28240 3798 ft 211 kts 76°
2026-05-01 14:40 48.70522 9.30478 4271 ft 228 kts 76°
2026-05-01 14:40 48.71004 9.32899 4468 ft 255 kts 76°
2026-05-01 14:40 48.71505 9.35466 4615 ft 252 kts 77°
2026-05-01 14:41 48.71995 9.38042 4871 ft 257 kts 77°
2026-05-01 14:41 48.72491 9.40673 5236 ft 267 kts 77°
2026-05-01 14:41 48.72994 9.43338 6168 ft 272 kts 76°
2026-05-01 14:41 48.73518 9.46093 7143 ft 276 kts 76°
2026-05-01 14:42 48.73721 9.47161 7529 ft 274 kts 77°
2026-05-01 14:42 48.74244 9.49928 8546 ft 277 kts 76°
2026-05-01 14:42 48.74776 9.52751 9444 ft 282 kts 76°
2026-05-01 14:42 48.75316 9.55629 10354 ft 286 kts 77°
2026-05-01 14:43 48.75858 9.58516 10947 ft 301 kts 77°
2026-05-01 14:43 48.76452 9.61711 11157 ft 329 kts 77°
2026-05-01 14:43 48.77088 9.65128 11391 ft 354 kts 76°
2026-05-01 14:43 48.77769 9.68785 11895 ft 365 kts 76°
2026-05-01 14:44 48.78429 9.72326 12494 ft 373 kts 75°
2026-05-01 14:44 48.79848 9.79962 14044 ft 380 kts 75°
2026-05-01 14:44 48.80560 9.83833 14664 ft 385 kts 75°
2026-05-01 14:45 48.81279 9.87751 15419 ft 385 kts 75°
2026-05-01 14:45 48.82735 9.95648 16788 ft 391 kts 75°
2026-05-01 14:45 48.83456 9.99556 17616 ft 390 kts 75°
2026-05-01 14:46 48.84188 10.03547 18244 ft 396 kts 75°
2026-05-01 14:46 48.85426 10.11784 19306 ft 406 kts 89°
2026-05-01 14:46 48.85142 10.16048 19915 ft 408 kts 98°
2026-05-01 14:47 48.84732 10.20306 20592 ft 408 kts 97°
2026-05-01 14:47 48.84347 10.24593 21082 ft 413 kts 96°
2026-05-01 14:47 48.83978 10.28949 21522 ft 418 kts 96°
2026-05-01 14:48 48.83160 10.37705 22444 ft 428 kts 103°
2026-05-01 14:48 48.82112 10.41953 22903 ft 434 kts 115°
2026-05-01 14:48 48.78434 10.49351 23786 ft 448 kts 132°
2026-05-01 14:49 48.74051 10.56166 24529 ft 454 kts 131°
2026-05-01 14:49 48.69670 10.63098 25293 ft 459 kts 132°
2026-05-01 14:50 48.66716 10.67701 25758 ft 462 kts 132°
2026-05-01 14:50 48.60774 10.77127 26641 ft 468 kts 131°
2026-05-01 14:51 48.58527 10.80716 26965 ft 471 kts 131°
2026-05-01 14:51 48.54013 10.87947 27544 ft 476 kts 131°
2026-05-01 14:52 48.49469 10.95213 28382 ft 474 kts 131°
2026-05-01 14:52 48.47195 10.98807 28869 ft 473 kts 131°
2026-05-01 14:52 48.42650 11.05865 29719 ft 473 kts 132°
2026-05-01 14:53 48.40362 11.09408 30164 ft 472 kts 132°
2026-05-01 14:53 48.38079 11.12948 30584 ft 471 kts 132°
2026-05-01 14:53 48.35800 11.16488 30962 ft 470 kts 132°
2026-05-01 14:53 48.33530 11.20012 31327 ft 469 kts 132°
2026-05-01 14:54 48.31262 11.23525 31697 ft 469 kts 131°
2026-05-01 14:54 48.29024 11.27077 32014 ft 467 kts 127°
2026-05-01 14:54 48.27213 11.30888 32348 ft 463 kts 118°
2026-05-01 14:54 48.25791 11.35109 32752 ft 459 kts 110°
2026-05-01 14:55 48.24835 11.39362 33095 ft 454 kts 102°
2026-05-01 14:55 48.24106 11.43963 33458 ft 453 kts 101°
2026-05-01 14:55 48.23397 11.48567 33785 ft 453 kts 101°
2026-05-01 14:55 48.22682 11.53148 34138 ft 453 kts 101°
2026-05-01 14:56 48.21989 11.57489 34472 ft 452 kts 101°
2026-05-01 14:56 48.21244 11.62066 34778 ft 452 kts 101°
2026-05-01 14:56 48.20495 11.66623 35066 ft 451 kts 101°
2026-05-01 14:56 48.19751 11.71127 35339 ft 451 kts 101°
2026-05-01 14:57 48.18992 11.75705 35326 ft 455 kts 101°
2026-05-01 14:57 48.17383 11.89615 35327 ft 448 kts 92°
2026-05-01 14:58 48.16895 11.98887 35330 ft 445 kts 92°
2026-05-01 14:58 48.16184 12.08093 35326 ft 447 kts 102°
2026-05-01 14:59 48.15101 12.12402 35351 ft 451 kts 114°
2026-05-01 14:59 48.13408 12.16377 35323 ft 456 kts 126°
2026-05-01 14:59 48.08823 12.22999 35336 ft 459 kts 135°
2026-05-01 15:00 48.01769 12.32675 35344 ft 458 kts 134°
2026-05-01 15:01 47.97119 12.39196 35342 ft 459 kts 134°
2026-05-01 15:01 47.92488 12.45693 35343 ft 461 kts 134°
2026-05-01 15:02 47.87816 12.52240 35327 ft 462 kts 134°
2026-05-01 15:02 47.83127 12.58794 35337 ft 463 kts 134°
2026-05-01 15:03 47.78519 12.65473 35332 ft 463 kts 131°
2026-05-01 15:03 47.74009 12.72307 35349 ft 464 kts 131°
2026-05-01 15:04 47.69488 12.79075 35329 ft 465 kts 131°
2026-05-01 15:04 47.64911 12.85856 35311 ft 465 kts 131°
2026-05-01 15:05 47.60338 12.92603 35310 ft 463 kts 131°
2026-05-01 15:05 47.55771 12.99336 35328 ft 463 kts 131°
2026-05-01 15:06 47.51241 13.06005 35344 ft 463 kts 131°
2026-05-01 15:06 47.46672 13.12715 35342 ft 462 kts 131°
2026-05-01 15:07 47.42108 13.19403 35314 ft 462 kts 131°
2026-05-01 15:07 47.37538 13.26085 35321 ft 462 kts 131°
2026-05-01 15:08 47.33036 13.32740 35321 ft 460 kts 127°
2026-05-01 15:08 47.29416 13.40363 35347 ft 454 kts 118°
2026-05-01 15:09 47.26026 13.48234 35332 ft 455 kts 118°
2026-05-01 15:09 47.22604 13.56095 35319 ft 456 kts 118°
2026-05-01 15:10 47.19161 13.63903 35323 ft 454 kts 118°
2026-05-01 15:10 47.14007 13.75514 35340 ft 454 kts 118°
2026-05-01 15:11 47.08813 13.87162 35316 ft 454 kts 118°
2026-05-01 15:12 47.05351 13.94895 35325 ft 454 kts 118°
2026-05-01 15:12 47.00167 14.06446 35314 ft 455 kts 118°
2026-05-01 15:14 46.91436 14.25785 35327 ft 456 kts 118°
2026-05-01 15:14 46.86202 14.37312 35325 ft 456 kts 118°
2026-05-01 15:15 46.79173 14.52721 35323 ft 455 kts 118°
2026-05-01 15:16 46.72171 14.67987 35330 ft 453 kts 118°
2026-05-01 15:18 46.63375 14.87064 35331 ft 454 kts 117°
2026-05-01 15:19 46.56915 15.02655 35330 ft 450 kts 111°
2026-05-01 15:19 46.52518 15.14670 35326 ft 450 kts 112°
2026-05-01 15:20 46.48024 15.26618 35315 ft 449 kts 112°
2026-05-01 15:21 46.45031 15.34495 35318 ft 448 kts 112°
2026-05-01 15:21 46.42021 15.42404 35323 ft 448 kts 112°
2026-05-01 15:22 46.37496 15.54249 35323 ft 448 kts 112°
2026-05-01 15:22 46.34479 15.62121 35321 ft 448 kts 112°
2026-05-01 15:23 46.31473 15.69947 35331 ft 448 kts 112°
2026-05-01 15:23 46.28441 15.77823 35338 ft 448 kts 112°
2026-05-01 15:24 46.25436 15.85702 35324 ft 447 kts 111°
2026-05-01 15:24 46.22657 15.93693 35341 ft 445 kts 109°
2026-05-01 15:25 46.19950 16.01642 35345 ft 445 kts 109°
2026-05-01 15:25 46.17191 16.09654 35325 ft 446 kts 109°
2026-05-01 15:26 46.14409 16.17645 35336 ft 446 kts 110°
2026-05-01 15:26 46.11611 16.25631 35322 ft 447 kts 110°
2026-05-01 15:27 46.08827 16.33553 35325 ft 446 kts 110°
2026-05-01 15:28 46.04617 16.45492 35324 ft 446 kts 110°
2026-05-01 15:28 46.01801 16.53453 35336 ft 446 kts 110°
2026-05-01 15:29 45.97586 16.65321 35332 ft 446 kts 110°
2026-05-01 15:30 45.92404 16.79838 35329 ft 446 kts 110°
2026-05-01 15:31 45.83429 17.04797 35322 ft 444 kts 110°
2026-05-01 15:32 45.77746 17.20486 35328 ft 443 kts 110°
2026-05-01 15:34 45.69216 17.43866 35318 ft 443 kts 110°